| time (UTC) | temp F | wind direction | speed knots | gust knots | rain 1hr in | rain 24hr in | rain mn in | humidity % | barometer mb |
| 20260507113035 | 66 | 243 | 2.6 | 7.0 | 0.00 | 0.62 | 0.00 | 58 | 1012.4 |
| 20260507111504 | 67 | 248 | 0.0 | 5.2 | 0.00 | 0.62 | 0.00 | 56 | 1012.4 |
| 20260507110043 | 66 | 234 | 1.7 | 4.3 | 0.00 | 0.62 | 0.00 | 55 | 1012.5 |
| 20260507104506 | 65 | 297 | 2.6 | 6.1 | 0.00 | 0.63 | 0.00 | 63 | 1012.8 |
| 20260507103038 | 64 | 83 | 0.9 | 5.2 | 0.00 | 0.63 | 0.00 | 63 | 1013.0 |
| 20260507101508 | 63 | 242 | 1.7 | 4.3 | 0.00 | 0.63 | 0.00 | 71 | 1013.1 |
| 20260507100042 | 64 | 331 | 0.0 | 3.5 | 0.00 | 0.63 | 0.00 | 70 | 1013.3 |
| 20260507094510 | 62 | 102 | 0.0 | 5.2 | 0.00 | 0.66 | 0.00 | 74 | 1013.3 |
| 20260507093039 | 61 | 186 | 1.7 | 5.2 | 0.00 | 0.66 | 0.00 | 73 | 1013.4 |
| 20260507091504 | 60 | 161 | 0.0 | 1.7 | 0.00 | 0.66 | 0.00 | 76 | 1013.4 |
| 20260507090039 | 59 | 184 | 0.9 | 2.6 | 0.00 | 0.66 | 0.00 | 78 | 1013.5 |
| 20260507084513 | 58 | 193 | 2.6 | 4.3 | 0.00 | 0.76 | 0.00 | 80 | 1013.5 |
| 20260507083042 | 57 | 213 | 0.0 | 2.6 | 0.00 | 0.76 | 0.00 | 79 | 1013.5 |
| 20260507081524 | 57 | 200 | 2.6 | 4.3 | 0.00 | 0.76 | 0.00 | 78 | 1013.4 |
| 20260507080101 | 56 | 84 | 0.0 | 2.6 | 0.00 | 0.76 | 0.00 | 82 | 1013.5 |
| 20260507074527 | 55 | 63 | 0.9 | 6.1 | 0.00 | 0.95 | 0.00 | 82 | 1013.4 |
| 20260507073058 | 55 | 8 | 1.7 | 4.3 | 0.00 | 0.95 | 0.00 | 85 | 1013.5 |
| 20260507071520 | 55 | 330 | 0.0 | 2.6 | 0.00 | 0.95 | 0.00 | 90 | 1013.4 |
| 20260507070109 | 52 | 34 | 0.9 | 2.6 | 0.00 | 0.95 | 0.00 | 91 | 1013.3 |
| 20260507064532 | 52 | 68 | 1.7 | 2.6 | 0.00 | 0.98 | 0.00 | 93 | 1013.3 |
| 20260507063006 | 51 | 61 | 0.9 | 1.7 | 0.00 | 0.98 | 0.00 | 94 | 1013.4 |
| 20260507061535 | 51 | 6 | 0.0 | 0.9 | 0.00 | 0.98 | 0.00 | 95 | 1013.3 |
| 20260507060004 | 51 | 97 | 0.0 | 0.9 | 0.00 | 0.98 | 0.00 | 95 | 1013.2 |
| 20260507054541 | 51 | 61 | 0.0 | 1.7 | 0.00 | 0.98 | 0.00 | 96 | 1013.2 |
| 20260507053007 | 50 | 289 | 0.0 | 0.9 | 0.00 | 0.98 | 0.00 | 96 | 1013.0 |
| 20260507051534 | 50 | 289 | 0.0 | 1.7 | 0.00 | 0.98 | 0.00 | 96 | 1012.9 |
| 20260507044530 | 50 | 109 | 0.0 | 0.9 | 0.00 | 0.98 | 0.00 | 96 | 1012.5 |
| 20260507043006 | 50 | 40 | 0.0 | 0.9 | 0.00 | 0.98 | 0.00 | 96 | 1012.4 |
| 20260507041544 | 49 | 40 | 0.0 | 0.0 | 0.00 | 0.98 | 0.00 | 96 | 1012.3 |
| 20260507040020 | 49 | 40 | 0.0 | 1.7 | 0.00 | 0.98 | 0.00 | 96 | 1012.2 |
| 20260507034557 | 49 | 21 | 0.0 | 0.9 | 0.00 | 0.98 | 0.00 | 96 | 1012.2 |
| 20260507033035 | 49 | 340 | 0.0 | 0.9 | 0.00 | 0.98 | 0.00 | 96 | 1012.1 |
| 20260507031522 | 49 | 44 | 0.0 | 1.7 | 0.00 | 0.98 | 0.00 | 96 | 1012.0 |
| 20260507030011 | 49 | 302 | 0.0 | 0.0 | 0.00 | 0.98 | 0.00 | 96 | 1012.1 |
| 20260507024552 | 49 | 302 | 0.0 | 0.0 | 0.00 | 0.98 | 0.00 | 96 | 1012.1 |
| 20260507023040 | 49 | 302 | 0.0 | 0.9 | 0.00 | 0.98 | 0.00 | 96 | 1012.1 |
| 20260507021525 | 50 | 302 | 0.0 | 0.9 | 0.00 | 0.98 | 0.00 | 96 | 1012.2 |
| 20260507020019 | 49 | 302 | 0.0 | 0.9 | 0.00 | 0.98 | 0.00 | 96 | 1012.1 |
| 20260507014556 | 49 | 302 | 0.0 | 0.0 | 0.00 | 0.98 | 0.00 | 96 | 1012.0 |
| 20260507013046 | 48 | 302 | 0.0 | 0.9 | 0.00 | 0.98 | 0.00 | 96 | 1011.9 |
| 20260507011522 | 49 | 128 | 0.0 | 0.9 | 0.00 | 0.98 | 0.00 | 96 | 1011.9 |
| 20260507010109 | 49 | 127 | 0.0 | 0.9 | 0.00 | 0.98 | 0.00 | 96 | 1011.9 |
| 20260507004549 | 49 | 128 | 0.0 | 0.9 | 0.00 | 0.98 | 0.00 | 95 | 1011.9 |
| 20260507003032 | 50 | 128 | 0.0 | 0.9 | 0.00 | 0.98 | 0.00 | 95 | 1012.0 |
| 20260507001507 | 50 | 257 | 0.0 | 0.9 | 0.00 | 0.98 | 0.00 | 95 | 1012.0 |
| 20260507000053 | 50 | 347 | 0.0 | 0.9 | 0.00 | 0.98 | 0.00 | 96 | 1012.0 |
| 20260506234530 | 50 | 332 | 0.0 | 0.9 | 0.00 | 0.98 | 0.00 | 96 | 1012.0 |
| 20260506233013 | 50 | 328 | 0.0 | 0.9 | 0.00 | 0.98 | 0.00 | 95 | 1011.9 |
| 20260506231619 | 50 | 328 | 0.0 | 0.9 | 0.00 | 0.98 | 0.00 | 95 | 1012.0 |
| 20260506230044 | 50 | 328 | 0.0 | 0.9 | 0.00 | 0.98 | 0.00 | 95 | 1012.0 |
| 20260506224528 | 50 | 328 | 0.0 | 0.0 | 0.00 | 0.98 | 0.00 | 95 | 1012.1 |
| 20260506223014 | 51 | 328 | 0.0 | 0.9 | 0.00 | 0.98 | 0.00 | 95 | 1012.0 |
| 20260506221600 | 51 | 328 | 0.0 | 0.0 | 0.00 | 0.98 | 0.00 | 95 | 1012.0 |
| 20260506220041 | 51 | 328 | 0.0 | 0.0 | 0.00 | 0.98 | 0.00 | 95 | 1011.9 |
| 20260506214521 | 51 | 328 | 0.0 | 1.7 | 0.00 | 0.98 | 0.98 | 95 | 1011.7 |
| 20260506213003 | 51 | 328 | 0.9 | 0.9 | 0.00 | 0.98 | 0.98 | 95 | 1011.7 |
| 20260506211549 | 51 | 304 | 0.0 | 1.7 | 0.00 | 0.98 | 0.98 | 95 | 1011.8 |
| 20260506210032 | 51 | 311 | 0.0 | 0.0 | 0.00 | 0.98 | 0.98 | 95 | 1011.7 |
| 20260506204516 | 51 | 311 | 0.0 | 0.0 | 0.00 | 0.98 | 0.98 | 95 | 1011.7 |
| 20260506203052 | 51 | 311 | 0.0 | 1.7 | 0.00 | 0.98 | 0.98 | 95 | 1011.5 |
| 20260506201643 | 52 | 306 | 0.0 | 0.9 | 0.00 | 0.98 | 0.98 | 95 | 1011.5 |
| 20260506200037 | 52 | 305 | 0.0 | 0.9 | 0.00 | 0.98 | 0.98 | 95 | 1011.4 |
| 20260506194505 | 53 | 262 | 0.0 | 0.9 | 0.00 | 1.00 | 0.98 | 94 | 1011.3 |
| 20260506193047 | 53 | 262 | 0.0 | 0.9 | 0.00 | 1.00 | 0.98 | 94 | 1011.2 |
| 20260506191535 | 54 | 4 | 0.0 | 0.9 | 0.00 | 1.00 | 0.98 | 94 | 1011.2 |
| 20260506190019 | 54 | 4 | 0.0 | 0.0 | 0.00 | 1.00 | 0.98 | 94 | 1011.1 |
| 20260506184625 | 54 | 4 | 0.0 | 0.9 | 0.00 | 1.06 | 0.98 | 94 | 1010.8 |
| 20260506183036 | 54 | 4 | 0.0 | 0.9 | 0.00 | 1.06 | 0.98 | 93 | 1010.8 |
| 20260506181516 | 55 | 4 | 0.0 | 0.0 | 0.00 | 1.06 | 0.98 | 93 | 1010.7 |
| 20260506180051 | 55 | 4 | 0.0 | 0.9 | 0.00 | 1.06 | 0.98 | 92 | 1010.5 |
| 20260506174532 | 56 | 108 | 0.0 | 0.9 | 0.00 | 1.09 | 0.98 | 92 | 1010.4 |
| 20260506173011 | 56 | 63 | 0.0 | 0.9 | 0.00 | 1.09 | 0.98 | 91 | 1010.4 |
| 20260506171553 | 56 | 81 | 0.0 | 1.7 | 0.00 | 1.09 | 0.98 | 91 | 1010.2 |
| 20260506170026 | 55 | 75 | 0.9 | 1.7 | 0.00 | 1.09 | 0.98 | 90 | 1010.0 |
| 20260506164505 | 55 | 51 | 0.0 | 1.7 | 0.00 | 1.11 | 0.98 | 92 | 1010.0 |
| 20260506163043 | 54 | 48 | 0.9 | 1.7 | 0.01 | 1.11 | 0.98 | 92 | 1010.0 |
| 20260506161515 | 54 | 49 | 2.6 | 4.3 | 0.02 | 1.11 | 0.98 | 92 | 1010.0 |
| 20260506160107 | 54 | 30 | 2.6 | 7.8 | 0.06 | 1.11 | 0.98 | 92 | 1010.0 |
| 20260506154523 | 54 | 63 | 4.3 | 9.6 | 0.10 | 1.11 | 0.98 | 94 | 1010.0 |
| 20260506153058 | 54 | 86 | 4.3 | 7.0 | 0.14 | 1.10 | 0.97 | 95 | 1010.3 |
| 20260506151527 | 54 | 41 | 0.0 | 7.8 | 0.19 | 1.09 | 0.96 | 95 | 1010.4 |
| 20260506150100 | 54 | 64 | 1.7 | 3.5 | 0.33 | 1.06 | 0.92 | 94 | 1010.5 |
| 20260506144532 | 54 | 90 | 0.9 | 2.6 | 0.35 | 1.01 | 0.87 | 94 | 1010.7 |
| 20260506143059 | 54 | 105 | 1.7 | 3.5 | 0.32 | 0.96 | 0.83 | 94 | 1010.4 |
| 20260506141529 | 54 | 321 | 0.0 | 2.6 | 0.28 | 0.91 | 0.77 | 94 | 1010.2 |
| 20260506140159 | 54 | 307 | 0.9 | 6.1 | 0.20 | 0.73 | 0.60 | 94 | 1010.4 |
| 20260506134525 | 55 | 282 | 0.9 | 4.3 | 0.17 | 0.67 | 0.53 | 93 | 1010.4 |
| 20260506133051 | 55 | 304 | 0.0 | 4.3 | 0.15 | 0.65 | 0.50 | 92 | 1010.5 |
| 20260506131511 | 56 | 195 | 0.0 | 4.3 | 0.13 | 0.62 | 0.48 | 92 | 1010.6 |
| 20260506130039 | 57 | 255 | 2.6 | 4.3 | 0.02 | 0.52 | 0.38 | 89 | 1010.6 |
| 20260506124507 | 57 | 105 | 0.0 | 1.7 | 0.00 | 0.51 | 0.35 | 87 | 1010.6 |
| 20260506123042 | 57 | 62 | 0.9 | 2.6 | 0.00 | 0.51 | 0.35 | 88 | 1010.5 |
| 20260506121505 | 57 | 131 | 1.7 | 3.5 | 0.00 | 0.51 | 0.35 | 87 | 1010.7 |
| 20260506120104 | 58 | 150 | 0.0 | 2.6 | 0.00 | 0.51 | 0.35 | 89 | 1010.7 |
| 20260506114509 | 57 | 117 | 0.0 | 2.6 | 0.01 | 0.61 | 0.35 | 90 | 1011.0 |